[[{"header":{"parameterUnit":"m.s-1","parameterCategory":1,"la1":30.2991,"la2":30.254,"lo1":-89.0895,"lo2":-89.0444,"dy":0.0017,"dx":0.0017,"nx":28,"ny":28,"refTime":"2023-09-25T21:00:00:Z","depth":0,"parameterNumber":2,"parameterNumberName":"U-component_of_WINDS"},"data":[0,0,0,0,0,0,0,0,0,0,0,0,0,0,0,0,0,0,0,0,0,0,0,0,0,0,0,0,0,0,0,0,0,0,0,0,0,0,0,0,0,0,0,0,0,0,0,0,0,0,0,0,0,0,0,0,0,0,-4.1249,-4.125,0,-4.1348,-4.1349,-4.135,-4.1302,-4.1299,-4.1297,-4.1294,-4.1394,-4.1399,-4.1404,0,0,0,0,0,0,0,0,0,0,0,0,0,-4.1015,-4.102,-4.1249,-4.125,-4.1251,-4.1348,-4.1349,-4.135,-4.1302,-4.1299,-4.1296,-4.1293,-4.1392,-4.1398,-4.1404,0,0,0,0,0,0,0,0,0,0,0,0,0,-4.1116,-4.1021,-4.1248,-4.1239,-4.1239,-4.1348,-4.1349,-4.1351,-4.1303,-4.1299,-4.1295,-4.1291,-4.139,-4.1397,-4.1405,-4.1528,0,0,-4.1428,-4.1431,0,0,0,0,0,0,0,0,-4.111,-4.1124,-4.1239,-4.124,-4.124,-4.1309,-4.1303,-4.141,-4.1304,-4.1278,-4.1294,-4.129,-4.1368,-4.1377,-4.1404,-4.1533,-4.1537,-4.1429,-4.1433,-4.1436,-4.1439,0,0,0,0,0,0,0,-4.1103,-4.112,-4.1288,-4.1241,-4.1241,-4.1229,-4.1239,-4.1323,-4.1344,-4.128,-4.1277,-4.129,-4.1368,-4.1397,-4.1406,-4.1539,-4.1428,-4.1435,-4.144,-4.1443,-4.1771,-4.1775,0,0,0,0,0,0,-4.1097,-4.1114,-4.1285,-4.1291,-4.1164,-4.1236,-4.1247,-4.129,-4.1343,-4.1347,-4.1293,-4.1287,-4.1386,-4.1398,-4.141,-4.1555,-4.1436,-4.1443,-4.1448,-4.1767,-4.1772,-4.1777,0,0,0,0,0,0,-4.1092,-4.1112,-4.1281,-4.1202,-4.1222,-4.1244,-4.1293,-4.1294,-4.1324,-4.1352,-4.1355,-4.1319,-4.1384,-4.1399,-4.1499,-4.1558,-4.1447,-4.1454,-4.1762,-4.1769,-4.1775,-4.1849,0,0,0,0,0,0,-4.1085,-4.1111,-4.1158,-4.1203,-4.1227,-4.1369,-4.1297,-4.1299,-4.1337,-4.133,-4.1378,-4.1382,-4.1382,-4.1488,-4.1506,-4.1567,-4.146,-4.1757,-4.1765,-4.1773,-4.1841,-4.1857,-4.1871,0,0,0,0,0,-4.1077,-4.1175,-4.1161,-4.1182,-4.1287,-4.1372,-4.1386,-4.1384,-4.1342,-4.1389,-4.1408,-4.138,-4.155,-4.1498,-4.1519,-4.1582,-4.1753,-4.1763,-4.1772,-4.1835,-4.1854,-4.187,0,0,0,0,0,0,-4.1136,-4.1181,-4.1166,-4.1281,-4.1324,-4.1364,-4.1423,-4.1405,-4.146,-4.1451,-4.1447,-4.1458,-4.1561,-4.1582,-4.1524,-4.1704,-4.1645,-4.1659,-4.1685,-4.1704,-4.1718,-4.1709,-4.1466,0,0,0,0,0,-4.1163,-4.123,-4.1265,-4.1364,-4.1386,-4.1402,-4.1439,-4.1434,-4.1477,-4.1495,-4.152,-4.1563,-4.1625,-4.1666,-4.1726,-4.1846,-4.1854,-4.1899,-4.1914,-4.1926,-4.1937,-4.2,-4.202,-4.1808,-4.1808,-4.1808,0,0,-4.1218,-4.1251,-4.1293,-4.1377,-4.1409,-4.1476,-4.1417,-4.1491,-4.1541,-4.1506,-4.1601,-4.1622,-4.1669,-4.1778,-4.1828,-4.1799,-4.1998,-4.1938,-4.1947,-4.1952,-4.2012,-4.2032,-4.2049,-4.1814,-4.1813,-4.1812,0,0,-4.1353,-4.1386,-4.147,-4.1504,-4.1554,-4.1564,-4.1584,-4.1628,-4.164,-4.1736,-4.171,-4.177,-4.1879,-4.1912,-4.1944,-4.2093,-4.2069,-4.2113,-4.2188,-4.2249,-4.2266,-4.228,-4.2331,-4.2349,-4.2124,-4.2124,-4.2125,0,-4.1415,-4.1517,-4.1516,-4.1593,-4.1629,-4.1602,-4.1687,-4.1719,-4.1786,-4.1811,-4.1779,-4.1913,-4.1944,-4.206,-4.2096,-4.2124,-4.2145,-4.2105,-4.2264,-4.2278,-4.2292,-4.234,-4.2359,-4.2129,-4.2129,-4.2128,-4.2128,0,-4.1589,-4.166,-4.1723,-4.1788,-4.1832,-4.1912,-4.1923,-4.1968,-4.196,-4.1973,-4.2071,-4.2106,-4.2171,-4.2199,-4.2193,-4.2315,-4.2295,-4.2264,-4.2203,-4.2317,-4.2362,-4.238,-4.2136,-4.2134,-4.2133,-4.2132,0,0,-4.1761,-4.1825,-4.1848,-4.1876,-4.193,-4.1984,-4.2064,-4.2128,-4.2165,-4.2213,-4.2277,-4.2371,-4.2342,-4.2378,-4.2375,-4.2429,-4.2542,-4.2391,-4.2392,-4.2415,-4.2676,-4.2696,-4.2718,-4.2528,-4.2532,-4.2534,-4.2671,0,-4.1896,-4.2035,-4.2037,-4.2164,-4.2228,-4.2204,-4.2273,-4.2313,-4.2328,-4.2384,-4.2401,-4.2466,-4.2424,-4.2445,-4.2498,-4.2517,-4.2594,-4.2508,-4.2586,-4.2589,-4.2571,-4.2742,-4.2764,-4.2891,-4.2689,-4.2692,-4.2694,0,-4.2073,-4.2126,-4.2259,-4.2302,-4.233,-4.2391,-4.245,-4.2505,-4.255,-4.2557,-4.2598,-4.2587,-4.2666,-4.2607,-4.2716,-4.2657,-4.269,-4.2704,-4.2709,-4.2713,-4.2645,-4.2747,-4.2932,-4.2949,-4.2722,-4.272,-4.2718,0,-4.2181,-4.2286,-4.2379,-4.2404,-4.2458,-4.2502,-4.2526,-4.2567,-4.2605,-4.2657,-4.2681,-4.2742,-4.2774,-4.2821,-4.2827,-4.2783,-4.2936,-4.2877,-4.2942,-4.2941,-4.2971,-4.2969,-4.316,-4.2999,-4.2999,-4.2998,-4.2998,0,-4.233,-4.2411,-4.2427,-4.2484,-4.2575,-4.2577,-4.2666,-4.2687,-4.2724,-4.2783,-4.2767,-4.2823,-4.2829,-4.2887,-4.2892,-4.298,-4.2996,-4.3002,-4.3002,-4.3002,-4.3,-4.302,-4.301,-4.3003,-4.3002,-4.3001,-4.3,0,-4.2464,-4.2478,-4.2577,-4.262,-4.2633,-4.2698,-4.2734,-4.2788,-4.2802,-4.2878,-4.2896,-4.2917,-4.2985,-4.2996,-4.3075,-4.3079,-4.3183,-4.3176,-4.3168,-4.3165,-4.3228,-4.3221,-4.3436,-4.3463,-4.3288,-4.3289,-4.3291,0,-4.2556,-4.2618,-4.2668,-4.2707,-4.2734,-4.2797,-4.2836,-4.2841,-4.2883,-4.2938,-4.2985,-4.3051,-4.3103,-4.3212,-4.3234,-4.3295,-4.3286,-4.3358,-4.3295,-4.3292,-4.3283,-4.3278,-4.3283,-4.3368,-4.337,-4.3372,-4.3373,0,-4.2718,-4.2722,-4.2779,-4.2839,-4.2886,-4.2934,-4.2979,-4.3012,-4.3022,-4.307,-4.3138,-4.3179,-4.326,-4.3325,-4.3385,-4.3409,-4.3393,-4.3394,-4.3411,-4.3409,-4.3401,-4.3403,-4.3197,-4.3387,-4.3386,-4.3385,-4.3384,-4.3384,-4.2831,-4.2885,-4.2928,-4.2992,-4.3027,-4.3069,-4.3121,-4.3142,-4.32,-4.3266,-4.3266,-4.3341,-4.3384,-4.3463,-4.3491,-4.3549,-4.3526,-4.3552,-4.3558,-4.3564,-4.3568,-4.3395,-4.3561,-4.3561,-4.356,-4.356,-4.356,0,-4.2989,-4.3016,-4.3075,-4.3138,-4.3189,-4.3171,-4.3219,-4.3262,-4.3328,-4.337,-4.3422,-4.3501,-4.3564,-4.3592,-4.3654,-4.3695,-4.3689,-4.3711,-4.3706,-4.3711,-4.3587,-4.3564,-4.3715,-4.3715,-4.3715,-4.3715,-4.3714,-4.3714,-4.3076,-4.3165,-4.3175,-4.328,-4.3307,-4.338,-4.3409,-4.3447,-4.348,-4.3569,-4.3621,-4.364,-4.3676,-4.374,-4.3797,-4.3804,-4.3826,-4.3851,-4.3854,-4.3736,-4.372,-4.3705,-4.3683,-4.3856,-4.3857,-4.3973,-4.3974,-4.3974]},{"header":{"parameterUnit":"m.s-1","parameterCategory":1,"la1":30.2991,"la2":30.254,"lo1":-89.0895,"lo2":-89.0444,"dy":0.0017,"dx":0.0017,"nx":28,"ny":28,"refTime":"2023-09-25T21:00:00:Z","depth":0,"parameterNumber":3,"parameterNumberName":"V-component_of_WINDS"},"data":[0,0,0,0,0,0,0,0,0,0,0,0,0,0,0,0,0,0,0,0,0,0,0,0,0,0,0,0,0,0,0,0,0,0,0,0,0,0,0,0,0,0,0,0,0,0,0,0,0,0,0,0,0,0,0,0,0,0,-0.0324,-0.0324,0,-0.0369,-0.0369,-0.037,-0.0401,-0.0401,-0.0401,-0.0401,-0.0451,-0.0452,-0.0453,0,0,0,0,0,0,0,0,0,0,0,0,0,-0.0266,-0.0267,-0.0324,-0.0324,-0.0325,-0.0369,-0.0369,-0.037,-0.0401,-0.0401,-0.0401,-0.0402,-0.0451,-0.0452,-0.0453,0,0,0,0,0,0,0,0,0,0,0,0,0,-0.0299,-0.0268,-0.0324,-0.0345,-0.0348,-0.0369,-0.0369,-0.037,-0.0401,-0.0401,-0.0401,-0.0402,-0.045,-0.0452,-0.0453,-0.0457,0,0,-0.0458,-0.0459,0,0,0,0,0,0,0,0,-0.0297,-0.0301,-0.0342,-0.0344,-0.0347,-0.0379,-0.0367,-0.0399,-0.0401,-0.0381,-0.0401,-0.0402,-0.0427,-0.0431,-0.0439,-0.0459,-0.0462,-0.0459,-0.046,-0.046,-0.0461,0,0,0,0,0,0,0,-0.0295,-0.03,-0.0342,-0.0342,-0.0345,-0.0354,-0.0359,-0.0374,-0.0402,-0.0383,-0.0385,-0.039,-0.0429,-0.0437,-0.044,-0.0462,-0.0459,-0.046,-0.0461,-0.0462,-0.0487,-0.0487,0,0,0,0,0,0,-0.0289,-0.0298,-0.034,-0.0343,-0.0322,-0.0354,-0.036,-0.0369,-0.0402,-0.0407,-0.0389,-0.0391,-0.0434,-0.0438,-0.0442,-0.0448,-0.046,-0.0462,-0.0463,-0.0488,-0.0487,-0.0487,0,0,0,0,0,0,-0.0288,-0.0293,-0.0338,-0.0321,-0.0327,-0.0355,-0.0364,-0.0369,-0.0378,-0.0407,-0.0412,-0.0392,-0.0434,-0.0439,-0.0453,-0.045,-0.0463,-0.0464,-0.0488,-0.0488,-0.0487,-0.046,0,0,0,0,0,0,-0.0286,-0.0292,-0.0293,-0.0321,-0.0328,-0.0348,-0.0364,-0.037,-0.038,-0.0383,-0.0411,-0.0416,-0.0435,-0.045,-0.0454,-0.0453,-0.0465,-0.0489,-0.0488,-0.0487,-0.0461,-0.0459,-0.0457,0,0,0,0,0,-0.0284,-0.0285,-0.0293,-0.0298,-0.033,-0.0348,-0.0352,-0.0373,-0.038,-0.0382,-0.04,-0.0415,-0.0449,-0.0451,-0.0456,-0.0455,-0.0489,-0.0488,-0.0487,-0.0463,-0.0459,-0.0457,0,0,0,0,0,0,-0.0258,-0.0289,-0.0299,-0.0308,-0.0325,-0.0353,-0.0356,-0.0369,-0.0385,-0.0387,-0.0413,-0.0419,-0.0429,-0.0443,-0.0445,-0.046,-0.0471,-0.0471,-0.045,-0.0447,-0.0445,-0.0442,-0.0467,0,0,0,0,0,-0.0253,-0.0264,-0.0291,-0.0297,-0.0304,-0.0328,-0.0337,-0.0351,-0.037,-0.0377,-0.0397,-0.0415,-0.043,-0.0439,-0.0455,-0.0463,-0.047,-0.0465,-0.0462,-0.046,-0.046,-0.0465,-0.0463,-0.0485,-0.0485,-0.0485,0,0,-0.0244,-0.0262,-0.0268,-0.0292,-0.0306,-0.0317,-0.0334,-0.0346,-0.0354,-0.038,-0.0393,-0.0407,-0.043,-0.044,-0.0446,-0.0452,-0.0456,-0.0459,-0.0457,-0.0459,-0.0464,-0.0462,-0.046,-0.0484,-0.0484,-0.0484,0,0,-0.0233,-0.0247,-0.0254,-0.0267,-0.0288,-0.0304,-0.0305,-0.0331,-0.0341,-0.0355,-0.0374,-0.0384,-0.0409,-0.0424,-0.0435,-0.0427,-0.0442,-0.0431,-0.0419,-0.0423,-0.0422,-0.042,-0.0418,-0.0416,-0.0431,-0.0431,-0.0431,0,-0.0219,-0.0236,-0.0256,-0.0265,-0.0275,-0.0297,-0.0303,-0.0316,-0.0342,-0.0348,-0.0355,-0.0386,-0.0402,-0.0416,-0.0414,-0.0422,-0.0424,-0.0429,-0.042,-0.0419,-0.0418,-0.0416,-0.0414,-0.043,-0.043,-0.043,-0.043,0,-0.0217,-0.0228,-0.0231,-0.0253,-0.0264,-0.0272,-0.0293,-0.0301,-0.0314,-0.0329,-0.0342,-0.0362,-0.0382,-0.0386,-0.0399,-0.0401,-0.0405,-0.0415,-0.0427,-0.0414,-0.0412,-0.0412,-0.0428,-0.0428,-0.0429,-0.0429,0,0,-0.0193,-0.0225,-0.0225,-0.0235,-0.0259,-0.0269,-0.0277,-0.0295,-0.0301,-0.0318,-0.0326,-0.0345,-0.0355,-0.0367,-0.0382,-0.0386,-0.0377,-0.0396,-0.0397,-0.0392,-0.0381,-0.0373,-0.0372,-0.0387,-0.0387,-0.0387,-0.0379,0,-0.0186,-0.0202,-0.0219,-0.0229,-0.024,-0.0259,-0.0267,-0.0283,-0.0297,-0.0308,-0.0324,-0.0337,-0.0348,-0.0356,-0.036,-0.0377,-0.0376,-0.0378,-0.0395,-0.0396,-0.039,-0.0371,-0.0363,-0.0355,-0.0378,-0.0378,-0.0378,0,-0.018,-0.0194,-0.0204,-0.0226,-0.0231,-0.0237,-0.0254,-0.0264,-0.0282,-0.0292,-0.0304,-0.032,-0.033,-0.034,-0.0355,-0.0356,-0.0364,-0.0373,-0.0373,-0.0376,-0.0387,-0.0374,-0.0353,-0.0352,-0.0377,-0.0377,-0.0377,0,-0.0161,-0.0182,-0.0191,-0.0199,-0.0225,-0.0229,-0.024,-0.0258,-0.0267,-0.0281,-0.0287,-0.0304,-0.0313,-0.0325,-0.0344,-0.0349,-0.0357,-0.0368,-0.0366,-0.0365,-0.0367,-0.0367,-0.0348,-0.0371,-0.0371,-0.0371,-0.0371,0,-0.0151,-0.0157,-0.0183,-0.0188,-0.0195,-0.0215,-0.0222,-0.0235,-0.025,-0.0259,-0.0277,-0.0285,-0.0309,-0.032,-0.0335,-0.0345,-0.0349,-0.0358,-0.0362,-0.0356,-0.0355,-0.0363,-0.0364,-0.0371,-0.0371,-0.0371,-0.0371,0,-0.0132,-0.0149,-0.016,-0.0183,-0.0189,-0.0193,-0.0212,-0.0219,-0.0232,-0.0243,-0.0247,-0.0269,-0.0283,-0.0303,-0.0323,-0.0333,-0.034,-0.0347,-0.0334,-0.0337,-0.0333,-0.0333,-0.0319,-0.0318,-0.0341,-0.034,-0.034,0,-0.0125,-0.013,-0.0152,-0.0159,-0.0169,-0.0179,-0.0188,-0.0207,-0.0215,-0.0235,-0.0239,-0.0253,-0.0266,-0.0287,-0.0305,-0.032,-0.0328,-0.0321,-0.033,-0.0324,-0.0328,-0.0327,-0.0328,-0.032,-0.0319,-0.0319,-0.0319,0,-0.0111,-0.0119,-0.013,-0.0144,-0.0153,-0.0165,-0.0178,-0.0183,-0.0205,-0.0213,-0.0226,-0.0236,-0.0255,-0.027,-0.0287,-0.0299,-0.0313,-0.0315,-0.0316,-0.0311,-0.0303,-0.0307,-0.0329,-0.0316,-0.0316,-0.0317,-0.0317,-0.0317,-0.0099,-0.0103,-0.0119,-0.0131,-0.0142,-0.0153,-0.016,-0.0174,-0.0185,-0.0201,-0.0212,-0.0224,-0.0241,-0.0265,-0.0276,-0.0287,-0.0293,-0.0293,-0.0293,-0.0293,-0.0291,-0.03,-0.029,-0.029,-0.029,-0.029,-0.029,0,-0.0086,-0.0096,-0.0107,-0.0123,-0.0132,-0.0142,-0.0157,-0.0164,-0.0174,-0.0188,-0.0199,-0.0214,-0.0228,-0.0246,-0.0261,-0.0266,-0.0272,-0.0269,-0.0269,-0.0272,-0.0285,-0.0284,-0.0263,-0.0263,-0.0263,-0.0263,-0.0263,-0.0263,-0.008,-0.0088,-0.0098,-0.0111,-0.0122,-0.0134,-0.0141,-0.0151,-0.0163,-0.0178,-0.0188,-0.02,-0.0216,-0.0231,-0.0244,-0.0249,-0.0254,-0.0249,-0.0256,-0.0268,-0.0271,-0.0273,-0.0272,-0.025,-0.025,-0.0242,-0.0242,-0.0242]}]]